CAPE
0 0 0 0 0 0 0 0 0 0 0 0 0 0 0 0 0 0 0 1 7 4 2 4 1 1 2 1 0 1 1 2 2 0 1 2 3 3 4 0 0 0 0
0 0 0 0 0 0 0 0 0 0 0 0 0 0 0 0 0 0 4 14 4 3 8 7 0 0 0 2 0 0 1 1 1 2 0 6 3 3 1 0 0 0 0
0 0 0 0 0 0 0 0 0 0 0 0 0 0 0 2 5 6 11 5 2 0 9 0 0 0 0 0 0 0 0 1 0 0 0 4 1 2 1 0 0 0 0
0 0 0 0 0 0 0 0 0 0 0 0 0 0 0 1 0 2 0 0 0 0 0 0 0 0 0 0 0 0 0 0 0 0 1 1 1 2 1 0 0 0 0
0 0 0 0 0 0 0 0 0 0 0 0 0 0 0 0 0 0 0 0 0 0 0 0 0 0 0 1 1 0 0 0 0 1 1 0 0 2 0 0 0 0 0
0 0 0 0 0 0 0 0 0 0 0 0 0 0 0 0 0 0 0 1 0 0 1 0 0 0 0 0 1 1 0 1 0 0 0 0 0 0 0 0 0 0 0
0 0 0 0 0 0 0 0 0 0 0 0 0 0 0 0 0 0 0 0 0 0 0 0 0 0 0 0 0 2 1 1 0 0 0 0 0 0 0 0 0 0 0
0 0 0 0 0 0 0 0 0 0 0 0 0 0 0 0 0 0 0 0 0 0 0 0 0 0 0 0 0 0 1 0 0 0 0 0 0 0 0 0 0 0 0
0 0 0 0 0 0 0 0 0 0 0 0 0 0 0 0 0 0 0 0 0 0 0 0 0 0 0 0 2 2 1 0 0 0 0 0 0 0 0 0 0 0 0
0 0 0 0 0 0 0 0 0 0 0 0 0 0 0 0 0 0 0 0 0 0 0 0 0 0 0 0 3 1 2 1 1 0 1 1 1 1 2 0 0 0 0
0 0 0 0 0 0 0 0 0 0 0 0 0 0 0 0 0 0 0 2 1 4 5 3 0 0 0 0 2 0 0 0 0 0 0 0 0 0 0 1 0 0 0
0 0 0 0 0 0 0 0 0 0 0 0 0 0 0 0 0 0 0 1 0 1 0 0 0 0 0 1 1 0 1 0 0 0 0 0 0 0 0 0 0 0 0
0 0 0 0 0 0 0 0 0 0 0 0 0 0 0 0 0 0 0 0 0 1 0 0 0 0 0 1 1 1 0 0 0 0 0 0 0 0 0 0 1 0 0
0 0 0 0 0 0 1 0 0 0 0 0 0 0 0 0 0 0 0 0 0 1 0 0 0 0 0 0 0 0 0 0 0 0 0 0 0 0 0 0 1 1 0
0 0 0 0 0 0 0 0 0 0 0 0 0 0 0 0 0 0 0 0 0 0 0 0 0 0 0 0 0 1 0 0 0 0 0 0 0 0 0 0 1 1 1
0 0 0 0 0 0 0 0 1 0 0 0 0 0 0 0 0 0 0 0 0 0 0 0 0 0 0 0 0 0 0 0 0 0 0 0 0 0 0 0 0 0 0
0 0 0 0 0 0 0 0 0 3 2 1 0 0 0 0 0 0 0 0 0 0 0 0 0 0 0 0 0 0 0 0 0 0 0 0 0 0 0 0 0 0 0
0 0 0 0 0 0 0 0 0 0 0 0 0 0 1 1 2 0 0 0 0 0 0 0 0 0 0 1 1 0 0 0 0 0 0 0 0 2 0 0 0 0 0
0 0 0 1 0 0 0 0 0 0 0 0 0 0 0 0 0 0 0 0 0 0 0 0 0 0 0 0 0 0 0 0 0 1 0 0 0 0 0 0 0 0 0
0 0 1 1 0 0 0 0 0 0 0 0 0 0 0 0 0 0 0 0 0 0 0 0 0 0 0 0 0 0 0 0 0 0 0 0 0 0 1 1 0 0 0
0 0 0 0 0 0 0 0 0 0 0 0 0 0 0 0 0 0 0 0 0 0 0 0 0 0 0 0 0 0 0 0 0 0 0 0 0 0 0 0 0 0 0
0 0 0 0 0 0 0 0 0 0 0 0 0 0 0 0 0 0 0 0 0 0 0 0 0 0 0 0 0 0 0 0 0 0 0 0 0 0 0 1 1 0 0
0 0 0 0 0 0 0 0 0 0 0 0 0 0 0 0 0 0 0 0 0 0 0 0 0 0 0 0 0 0 0 0 0 0 0 0 0 0 0 1 0 0 0
0 0 0 0 0 0 0 0 0 0 0 0 0 0 0 0 0 0 0 0 0 0 0 0 0 0 0 0 0 0 0 0 0 0 0 0 0 0 0 0 0 0 0
0 0 0 0 0 0 0 0 0 0 0 0 0 0 0 0 0 0 0 0 0 0 0 0 0 0 0 0 0 0 0 0 0 0 0 0 0 0 0 0 0 0 0
0 0 0 0 0 0 0 0 0 0 0 0 0 0 0 0 0 0 0 0 0 0 0 0 0 0 0 0 0 0 0 0 0 0 0 0 0 0 0 0 0 0 0
CIN
-0 -0 -0 -0 -0 -0 -0 -0 -0 -0 -0 -0 -0 -0 -0 -0 -0 -0 -7 -6 -63 -70 -76 -85 -28 -9 -72 -0 -0 -0 -0 -0 -0 -0 -0 -0 -0 -0 -0 -0 -0 -0 -0
-0 -0 -0 -0 -0 -0 -0 -0 -0 -0 -0 -0 -0 -0 -0 -0 -23 -1 -37 -40 -32 -41 -50 -50 -4 -4 -5 -30 -0 -0 -0 -0 -0 -0 -0 -0 -0 -0 -0 -0 -0 -0 -0
-0 -0 -0 -0 -0 -0 -0 -0 -0 -0 -0 -0 -0 -0 -1 -39 -28 -21 -11 -15 -19 -0 -37 -0 -0 -0 -0 -0 -0 -0 -0 -0 -0 -0 -0 -0 -0 -0 -0 -0 -0 -0 -0
-0 -0 -0 -0 -0 -0 -0 -0 -0 -0 -0 -0 -0 -0 -0 -7 -8 -13 -0 -0 -0 -0 -0 -0 -0 -0 -0 -0 -0 -0 -0 -0 -0 -0 -0 -0 -0 -0 -0 -0 -0 -0 -0
-0 -0 -0 -0 -0 -0 -0 -0 -0 -0 -0 -0 -0 -0 -0 -0 -0 -0 -0 -0 -0 -0 -0 -0 -0 -0 -0 -0 -0 -0 -0 -0 -0 -0 -0 -0 -0 -0 -0 -0 -0 -0 -0
-0 -0 -0 -0 -0 -0 -0 -0 -0 -0 -0 -0 -0 -0 -0 -0 -0 -0 -0 -0 -0 -0 -0 -0 -0 -0 -0 -0 -0 -0 -0 -0 -0 -0 -0 -0 -0 -0 -0 -0 -0 -0 -0
-0 -0 -0 -0 -0 -0 -0 -0 -0 -0 -0 -0 -0 -0 -0 -0 -0 -0 -0 -0 -0 -0 -0 -0 -0 -0 -0 -0 -0 -0 -0 -0 -0 -0 -0 -0 -0 -0 -0 -0 -0 -0 -0
-0 -0 -0 -0 -0 -0 -0 -0 -0 -0 -0 -0 -0 -0 -0 -0 -0 -0 -0 -0 -0 -0 -0 -0 -0 -0 -0 -0 -0 -0 -0 -0 -0 -0 -0 -0 -0 -0 -0 -0 -0 -0 -0
-0 -0 -0 -0 -0 -0 -0 -0 -0 -0 -0 -0 -0 -0 -0 -0 -0 -0 -0 -0 -0 -0 -0 -0 -0 -0 -0 -0 -0 -0 -0 -0 -0 -0 -0 -0 -0 -0 -0 -0 -0 -0 -0
-0 -0 -0 -0 -0 -0 -0 -0 -0 -0 -0 -0 -0 -0 -0 -0 -0 -0 -0 -0 -0 -0 -0 -0 -0 -0 -0 -0 -0 -0 -0 -0 -0 -0 -0 -0 -0 -0 -0 -0 -0 -0 -0
-0 -0 -0 -0 -0 -0 -0 -0 -0 -0 -0 -0 -0 -0 -0 -0 -0 -0 -0 -0 -0 -0 -0 -0 -0 -0 -0 -0 -0 -0 -0 -0 -0 -0 -0 -0 -0 -0 -0 -0 -0 -0 -0
-0 -0 -0 -0 -0 -0 -0 -0 -0 -0 -0 -0 -0 -0 -0 -0 -0 -0 -0 -0 -0 -0 -0 -0 -0 -0 -0 -0 -0 -0 -0 -0 -0 -0 -0 -0 -0 -0 -0 -0 -0 -0 -0
-0 -0 -0 -0 -0 -0 -0 -0 -0 -0 -0 -0 -0 -0 -0 -0 -0 -0 -0 -0 -0 -0 -0 -0 -0 -0 -0 -0 -0 -0 -0 -0 -0 -0 -0 -0 -0 -0 -0 -0 -0 -0 -0
-0 -0 -0 -0 -0 -0 -0 -0 -0 -0 -0 -0 -0 -0 -0 -0 -0 -0 -0 -0 -0 -0 -0 -0 -0 -0 -0 -0 -0 -0 -0 -0 -0 -0 -0 -0 -0 -0 -0 -0 -0 -0 -0
-0 -0 -0 -0 -0 -0 -0 -0 -0 -0 -0 -0 -0 -0 -0 -0 -0 -0 -0 -0 -0 -0 -0 -0 -0 -0 -0 -0 -0 -0 -0 -0 -0 -0 -0 -0 -0 -0 -0 -0 -0 -0 -0
-0 -0 -0 -0 -0 -0 -0 -0 -0 -0 -0 -0 -0 -0 -0 -0 -0 -0 -0 -0 -0 -0 -0 -0 -0 -0 -0 -0 -0 -0 -0 -0 -0 -0 -0 -0 -0 -0 -0 -0 -0 -0 -0
-0 -0 -0 -0 -0 -0 -0 -0 -0 -0 -0 -0 -0 -0 -0 -0 -0 -0 -0 -0 -0 -0 -0 -0 -0 -0 -0 -0 -0 -0 -0 -0 -0 -0 -0 -0 -0 -0 -0 -0 -0 -0 -0
-0 -0 -0 -0 -0 -0 -0 -0 -0 -0 -0 -0 -0 -0 -0 -0 -0 -0 -0 -0 -0 -0 -0 -0 -0 -0 -0 -0 -0 -0 -1 -0 -0 -0 -0 -0 -0 -0 -0 -0 -0 -0 -0
-0 -0 -0 -0 -0 -0 -0 -0 -0 -0 -0 -0 -0 -0 -0 -0 -0 -0 -0 -0 -0 -0 -0 -0 -0 -0 -0 -0 -0 -0 -0 -0 -0 -1 -2 -0 -0 -0 -0 -0 -0 -0 -0
-0 -0 -0 -0 -0 -0 -0 -0 -0 -0 -0 -0 -0 -0 -0 -0 -0 -0 -0 -0 -0 -0 -0 -0 -0 -0 -0 -0 -0 -0 -0 -0 -0 -0 -0 -0 -0 -1 -2 -1 -0 -0 -0
-0 -0 -0 -0 -0 -0 -0 -0 -0 -0 -0 -0 -0 -0 -0 -0 -0 -0 -0 -0 -0 -0 -0 -0 -0 -0 -0 -0 -0 -0 -0 -0 -0 -0 -0 -0 -0 -0 -0 -0 -0 -0 -0
-0 -0 -0 -0 -0 -0 -0 -0 -0 -0 -0 -0 -0 -0 -0 -0 -0 -0 -0 -0 -0 -0 -0 -0 -0 -0 -0 -0 -0 -0 -0 -0 -0 -0 -0 -0 -0 -0 -0 -0 -0 -0 -0
-0 -0 -0 -0 -0 -0 -0 -0 -0 -0 -0 -0 -0 -0 -0 -0 -0 -0 -0 -0 -0 -0 -0 -0 -0 -0 -0 -0 -0 -0 -0 -0 -0 -0 -0 -0 -0 -0 -0 -0 -0 -0 -0
-0 -0 -0 -0 -0 -0 -0 -0 -0 -0 -0 -0 -0 -0 -0 -0 -0 -0 -0 -0 -0 -0 -0 -0 -0 -0 -0 -0 -0 -0 -0 -0 -0 -0 -0 -0 -0 -0 -0 -0 -0 -0 -0
-0 -0 -0 -0 -0 -0 -0 -0 -0 -0 -0 -0 -0 -0 -0 -0 -0 -0 -0 -0 -0 -0 -0 -0 -0 -0 -0 -0 -0 -0 -0 -0 -0 -0 -0 -0 -0 -0 -0 -0 -0 -0 -0
-0 -0 -0 -0 -0 -0 -0 -0 -0 -0 -0 -0 -0 -0 -0 -0 -0 -0 -0 -0 -0 -0 -0 -0 -0 -0 -0 -0 -0 -0 -0 -0 -0 -0 -0 -0 -0 -0 -0 -0 -0 -0 -0
Wind_Speed
19 19 17 17 17 17 18 18 19 21 20 20 20 20 20 20 20 21 22 23 25 25 23 24 25 27 29 29 29 29 30 31 36 36 30 29 24 20 17 16 12 11 10
21 19 18 18 18 19 20 20 21 21 21 21 21 21 20 20 21 22 24 22 23 23 23 25 27 29 29 29 28 30 31 29 31 36 30 28 26 21 19 15 13 12 13
18 17 17 18 19 21 21 21 21 22 22 21 21 20 21 21 21 20 19 21 21 22 26 27 28 28 28 27 27 29 30 29 29 30 29 28 25 20 19 14 16 13 14
17 17 17 18 19 19 19 19 19 20 21 21 20 20 21 20 19 19 21 22 25 27 28 28 28 29 28 27 26 25 27 29 29 30 31 27 22 21 15 16 17 16 16
15 15 16 17 17 18 18 17 17 18 18 19 20 21 20 19 19 21 22 25 26 26 26 26 27 27 26 26 26 27 26 27 28 26 26 25 23 21 19 19 20 18 20
13 14 13 13 13 14 14 14 14 15 16 17 19 19 19 19 18 21 22 24 25 26 28 29 29 29 29 28 26 25 22 23 22 24 23 23 22 20 18 18 18 19 25
13 13 13 13 14 14 14 15 16 16 17 18 18 17 18 18 20 21 23 23 25 25 27 28 29 28 27 26 26 24 21 20 20 20 20 20 19 17 16 18 19 18 16
15 14 14 15 15 15 15 16 16 17 17 16 16 17 18 18 21 22 24 25 25 26 27 28 27 28 26 23 23 21 19 15 13 13 13 14 14 11 14 16 14 15 18
17 16 16 15 15 15 15 15 15 15 15 16 17 18 19 21 22 23 24 25 26 26 26 26 28 29 29 26 23 21 20 17 13 13 14 14 14 14 14 13 14 15 18
18 17 16 16 16 16 15 14 14 13 14 15 17 18 19 21 22 24 23 24 25 26 27 28 28 27 27 26 23 21 22 20 18 18 16 16 16 15 12 13 15 18 20
18 18 18 18 17 15 14 14 13 13 14 16 17 19 21 22 24 25 25 25 25 27 28 29 29 29 28 26 22 20 22 22 20 20 20 20 19 19 19 18 18 19 21
19 20 20 18 17 15 14 13 13 13 14 16 17 19 21 23 24 26 27 27 26 27 28 28 29 29 29 28 27 24 24 23 22 22 22 22 22 22 21 21 22 23 24
22 22 21 18 16 14 13 12 12 13 14 16 18 19 22 24 24 25 26 27 27 27 26 26 28 29 29 28 27 26 23 23 25 25 25 25 24 25 25 25 25 26 26
23 21 19 16 14 13 11 11 11 12 14 15 18 20 22 24 25 26 27 27 27 26 26 26 27 27 28 28 28 27 27 26 27 28 28 29 29 28 29 29 30 31 33
22 20 17 14 12 10 9 9 10 13 13 15 18 20 22 24 25 26 25 25 25 25 26 27 28 29 29 30 31 31 31 31 30 30 31 32 33 33 33 31 32 33 34
20 17 15 12 10 9 8 9 12 12 13 14 16 17 19 22 23 24 25 24 23 23 26 28 30 31 33 34 34 33 32 32 32 33 33 33 33 33 33 32 31 32 35
17 14 13 11 11 11 11 10 12 14 15 16 18 20 21 21 23 25 25 23 24 25 28 29 31 32 33 33 34 34 36 35 34 34 34 35 34 34 34 34 33 33 34
14 13 13 13 13 12 12 14 14 15 17 19 20 20 21 22 24 26 24 25 28 30 31 32 33 34 35 35 36 36 36 36 36 36 36 36 35 36 36 36 35 36 36
15 15 15 14 14 14 15 15 16 17 18 18 20 22 23 22 24 25 27 28 30 32 33 34 34 35 36 36 37 38 39 39 39 38 37 37 36 36 37 37 37 36 36
16 15 15 16 15 15 16 17 18 18 19 19 21 24 25 25 28 29 29 30 32 33 34 35 36 37 38 39 39 40 40 40 40 40 40 40 39 39 39 39 37 37 37
17 17 17 16 17 17 18 19 19 19 20 21 24 25 25 27 29 30 31 32 34 35 36 36 37 38 38 39 40 40 41 41 41 41 41 41 41 42 40 39 40 40 40
18 19 19 18 18 18 19 19 20 21 23 25 26 27 28 29 30 32 32 33 34 34 35 36 36 37 37 38 38 39 40 41 40 40 41 40 41 40 41 41 41 41 41
18 19 19 19 20 20 21 22 23 25 26 27 28 30 31 32 32 33 33 33 33 34 34 34 35 36 35 35 36 37 39 39 39 38 40 40 40 40 40 40 40 40 39
18 19 21 21 22 23 24 26 27 28 29 30 31 32 32 32 33 33 33 33 33 33 33 34 34 35 35 35 36 36 36 36 36 36 37 38 39 38 38 39 39 38 37
22 22 24 25 27 29 30 30 31 31 31 32 32 32 32 33 33 33 33 33 33 33 34 34 34 34 34 35 35 35 35 35 35 35 35 36 36 37 37 37 37 36 34
27 28 29 30 31 31 32 33 33 33 33 33 33 33 33 33 34 34 34 34 34 34 34 34 34 34 34 34 35 35 35 36 36 36 35 35 36 36 35 35 35 34 32
Wind_Direction
251 253 249 249 254 264 266 274 279 285 286 288 291 294 295 295 295 295 295 298 299 300 299 300 300 305 306 306 306 304 305 308 309 313 321 317 310 302 303 293 288 285 281
262 262 256 260 263 266 269 274 280 282 287 290 292 292 294 295 297 298 300 301 301 301 303 307 307 311 310 311 312 311 311 310 311 311 317 320 318 310 306 292 285 290 285
263 261 263 265 269 271 274 278 282 287 291 292 293 294 297 300 303 303 303 304 307 310 314 314 314 317 316 317 316 316 316 316 315 314 316 320 319 314 310 303 296 288 285
268 269 270 273 276 279 283 286 289 293 296 299 302 303 307 309 312 315 317 318 319 320 321 321 322 322 321 321 320 320 321 319 318 318 317 319 318 321 312 299 295 296 291
273 275 278 283 284 286 289 292 297 300 303 306 308 311 316 320 322 321 322 320 321 322 325 326 326 326 325 324 323 323 321 320 320 319 318 319 316 316 303 307 301 300 292
279 282 287 290 292 295 298 301 303 306 309 312 314 317 321 325 328 326 325 323 323 324 324 326 327 327 327 327 325 323 321 320 318 318 317 314 314 316 315 310 305 307 305
278 284 288 292 294 297 301 303 304 307 310 313 318 323 324 327 329 329 328 327 326 327 328 329 330 333 335 335 334 333 329 326 326 324 320 317 315 315 316 313 306 305 301
278 283 288 291 293 295 298 300 303 307 310 316 321 324 326 330 329 330 328 327 327 329 330 331 334 336 340 342 342 339 338 335 333 331 325 327 327 327 324 314 305 303 309
276 281 286 291 292 293 296 300 306 311 316 319 323 326 326 326 329 328 327 326 326 329 330 332 332 333 335 339 340 341 342 341 342 343 340 338 335 327 323 322 314 307 298
275 280 286 289 290 292 297 302 308 312 316 321 323 327 329 326 328 327 328 326 325 326 328 329 332 335 337 338 341 342 340 341 340 341 340 335 333 330 324 316 313 302 304
277 281 285 287 288 292 297 303 308 313 319 322 325 328 327 327 328 326 328 325 324 323 324 328 332 334 334 337 340 341 339 340 339 335 333 332 330 326 321 313 309 304 303
277 281 283 286 290 293 297 304 309 315 319 321 324 326 329 329 330 328 327 326 325 324 325 329 332 335 337 337 337 337 336 336 336 333 330 327 324 322 318 313 309 304 301
276 278 282 285 289 292 296 303 309 316 319 320 321 323 324 326 331 332 332 329 329 328 329 332 335 336 338 339 339 338 338 335 333 331 328 325 323 322 321 318 313 309 304
273 276 278 280 283 290 299 306 310 315 319 321 321 323 324 327 328 329 330 330 330 333 335 335 337 338 339 339 338 337 335 331 329 328 326 325 324 322 319 317 315 312 309
271 273 273 275 276 283 296 303 311 318 321 322 324 326 326 327 327 329 330 330 332 334 336 337 337 337 337 336 336 335 333 331 329 328 326 325 324 322 319 318 315 313 309
266 266 265 263 267 272 286 306 318 320 324 329 329 330 330 331 331 332 332 333 334 335 334 333 332 333 332 332 331 332 332 331 330 328 327 325 323 322 320 319 317 314 312
259 258 259 259 257 265 277 289 300 316 325 327 327 327 328 329 332 332 332 334 335 335 332 331 331 330 329 330 330 330 329 330 329 327 326 325 323 321 320 319 318 315 313
261 258 260 262 264 270 278 287 295 299 305 312 323 326 328 329 330 332 332 332 331 333 332 331 330 331 331 331 331 330 330 329 328 327 326 326 325 323 322 320 318 316 315
262 266 267 269 273 278 283 290 294 298 302 306 312 318 322 325 329 330 332 328 326 327 328 329 330 330 329 330 330 329 329 329 328 326 325 325 324 322 321 320 318 317 315
272 272 272 276 277 278 283 287 291 295 298 303 308 312 316 318 319 322 325 325 325 326 326 326 327 327 327 327 327 327 327 326 326 326 325 326 326 325 321 318 317 316 315
274 276 275 276 279 282 285 287 290 293 297 302 308 313 318 317 318 320 321 323 324 324 324 325 326 327 327 327 327 327 327 326 326 325 324 324 322 320 319 318 317 316 315
276 276 276 277 280 283 286 289 291 295 298 302 305 310 314 315 315 316 318 320 322 323 324 325 326 327 327 328 328 328 328 327 327 327 326 326 324 323 321 319 317 316 314
275 275 278 280 282 284 288 291 293 295 299 302 305 307 309 311 313 314 316 318 321 322 324 325 326 327 328 329 330 330 329 329 330 329 328 328 327 325 324 322 320 319 317
281 280 280 282 285 287 289 291 294 295 298 300 302 304 306 309 311 313 315 317 319 321 323 324 325 326 328 329 331 331 331 332 331 331 330 329 329 329 327 325 323 322 321
285 284 284 285 286 288 290 291 293 295 297 299 300 302 305 307 309 311 313 315 317 319 321 322 324 325 326 327 328 330 330 330 330 330 329 329 328 328 328 327 327 326 325
287 287 287 288 288 289 290 291 292 294 295 297 299 301 303 305 307 309 311 313 315 316 318 320 321 323 324 326 327 328 329 328 328 328 329 328 327 327 326 326 327 328 328